This is the latest recevied weather packets stored in our database for station/object HB9KBJ-8. If no packets are shown the sender has not sent any weather packets the latest 10 day(s).
| Time | Temp. | Humidity | Pressure | Rain* | Wind** | Luminosity | Snow |
|---|---|---|---|---|---|---|---|
| 1777472543 | 18.89° C | 47% | 1017.9 hPa | 0 mm | - | 501 W/m² | - |
| 1777472246 | 18.89° C | 47% | 1017.8 hPa | 0 mm | - | 545 W/m² | - |
| 1777471948 | 18.89° C | 47% | 1017.8 hPa | 0 mm | - | 503 W/m² | - |
| 1777471647 | 18.89° C | 47% | 1017.8 hPa | 0 mm | - | 589 W/m² | - |
| 1777471340 | 18.33° C | 50% | 1017.9 hPa | 0 mm | - | 612 W/m² | - |
| 1777471038 | 18.33° C | 48% | 1017.9 hPa | 0 mm | - | 443 W/m² | - |
| 1777470741 | 18.33° C | 49% | 1018 hPa | 0 mm | - | 450 W/m² | - |
| 1777470434 | 18.33° C | 50% | 1018.1 hPa | 0 mm | - | 236 W/m² | - |
| 1777470150 | 18.33° C | 51% | 1018.1 hPa | 0 mm | - | 554 W/m² | - |
| 1777469849 | 18.89° C | 49% | 1018.1 hPa | 0 mm | - | 596 W/m² | - |
| 1777469546 | 18.89° C | 49% | 1018.1 hPa | 0 mm | - | 773 W/m² | - |
| 1777469243 | 18.33° C | 49% | 1018.1 hPa | 0 mm | - | 621 W/m² | - |
| 1777468940 | 18.89° C | 49% | 1018.2 hPa | 0 mm | - | 613 W/m² | - |
| 1777468637 | 18.33° C | 51% | 1018.2 hPa | 0 mm | - | 694 W/m² | - |
| 1777468335 | 18.33° C | 50% | 1018.2 hPa | 0 mm | - | 643 W/m² | - |
| 1777468034 | 18.33° C | 50% | 1018.1 hPa | 0 mm | - | 721 W/m² | - |
| 1777467748 | 18.33° C | 51% | 1018.1 hPa | 0 mm | - | 693 W/m² | - |
| 1777467446 | 18.33° C | 51% | 1018.2 hPa | 0 mm | - | 671 W/m² | - |
| 1777467145 | 18.33° C | 51% | 1018.1 hPa | 0 mm | - | 708 W/m² | - |
| 1777466838 | 17.78° C | 51% | 1018.1 hPa | 0 mm | - | 721 W/m² | - |
| 1777466536 | 17.78° C | 52% | 1018.1 hPa | 0 mm | - | 765 W/m² | - |
| 1777466238 | 17.78° C | 52% | 1018.2 hPa | 0 mm | - | 733 W/m² | - |
| 1777465942 | 17.78° C | 52% | 1018.2 hPa | 0 mm | - | 737 W/m² | - |
| 1777465643 | 17.22° C | 53% | 1018.1 hPa | 0 mm | - | 788 W/m² | - |
| 1777465341 | 17.22° C | 54% | 1018.2 hPa | 0 mm | - | 747 W/m² | - |
* Rain latest hour (hover to see other rain measurements)
** Current wind speed in m/s (hover to see current wind gust speed)